Location: Newark
(48.6461°N, 4.3644°W)
Time: 13:44:44
(UTC+00:00)

N. Korean satellite - Visible Passes

Search period start: 07 December 2019 00:00
Search period end: 17 December 2019 00:00
Orbit: 456 x 506 km, 97.2° (Epoch: 06 December)

Date Brightness Start Highest point End Pass type
(mag) Time Alt. Az. Time Alt. Az. Time Alt. Az.
07 Dec 6.5 06:18:07 10° NNE 06:21:43 87° ESE 06:25:14 10° SSW visible
07 Dec 6.7 16:56:46 10° SSE 17:00:24 57° ENE 17:04:03 10° N visible
07 Dec 10.0 18:32:23 10° WSW 18:34:09 13° W 18:35:54 10° WNW visible
08 Dec 7.9 05:52:49 10° NNE 05:56:14 41° E 05:59:35 10° S visible
08 Dec 9.2 18:05:28 10° SSW 18:08:29 23° W 18:11:32 10° NW visible
09 Dec 9.2 05:27:51 10° NE 05:30:39 21° E 05:33:25 10° SE visible
09 Dec 7.3 07:00:58 10° N 07:04:05 29° WNW 07:07:10 10° SW visible
09 Dec 7.9 17:39:22 10° S 17:42:56 44° W 17:46:30 10° NNW visible
10 Dec 10.0 05:03:46 10° ENE 05:04:58 11° E 05:06:11 10° ESE visible
10 Dec 6.5 06:35:15 10° N 06:38:46 57° WNW 06:42:11 10° SSW visible
10 Dec 6.6 17:13:45 10° SSE 17:17:29 89° WNW 17:21:11 10° NNW visible
11 Dec 6.8 06:09:47 10° NNE 06:13:21 69° ESE 06:16:48 10° S visible
11 Dec 9.9 18:23:26 10° SW 18:25:43 16° W 18:28:00 10° NW visible
12 Dec 8.3 05:44:34 10° NNE 05:47:49 33° E 05:51:00 10° SSE visible
12 Dec 7.9 07:18:25 10° NNW 07:21:01 19° WNW 07:23:35 10° WSW visible
12 Dec 8.9 17:56:51 10° SSW 18:00:06 28° W 18:03:19 10° NW visible
13 Dec 9.5 05:19:46 10° NE 05:22:12 17° E 05:24:35 10° SE visible
13 Dec 7.1 06:52:29 10° N 06:55:45 35° WNW 06:58:57 10° SW visible
13 Dec 7.4 17:30:55 10° S 17:34:34 55° W 17:38:11 10° NNW visible
14 Dec 6.3 06:26:51 10° N 06:30:23 72° WNW 06:33:49 10° SSW visible
14 Dec 6.6 17:05:26 10° SSE 17:09:06 73° ENE 17:12:46 10° N visible
15 Dec 7.3 06:01:27 10° NNE 06:04:55 53° E 06:08:18 10° S visible
15 Dec 9.6 18:14:36 10° SW 18:17:16 19° W 18:19:55 10° NW visible
16 Dec 8.7 05:36:21 10° NE 05:39:22 26° E 05:42:20 10° SSE visible
16 Dec 7.6 07:09:50 10° NNW 07:12:40 23° WNW 07:15:28 10° WSW visible
16 Dec 8.4 17:48:16 10° SSW 17:51:40 34° W 17:55:02 10° NNW visible
